Weather History for KROX - November, 2013

Change the Weather History Date:

Friday, November 29, 2013

  Actual Average Record
Temperature  
Mean Temperature 14 °F -  
Max Temperature 32 °F 24 °F 41 °F (1949)
Min Temperature -5 °F 7 °F -35 °F (1985)
Degree Days  
Heating Degree Days 52    
Moisture  
Dew Point 10 °F    
Average Humidity 77    
Maximum Humidity 85    
Minimum Humidity 55    
Precipitation  
Precipitation 0.00 in - - ()
Sea Level Pressure  
Sea Level Pressure 30.21 in    
Wind  
Wind Speed 5 mph (SE)    
Max Wind Speed 15 mph    
Max Gust Speed 20 mph    
Visibility 10 miles    
Events      
Averages and records for this station are not official NWS values.
T = Trace of Precipitation, MM = Missing Value Source: NWS Daily Summary

Daily Weather History Graph

Daily Weather History Graph

Search for Another Location

Airport or City:

Trip Planner

Search our weather history database for the weather conditions in past years. The results will help you decide how hot, cold, wet, or windy it might be!

Date:

Astronomy

Nov. 29, 2013 Rise Set
Actual Time 7:52 AM CST 4:29 PM CST
Civil Twilight 7:16 AM CST 5:05 PM CST
Nautical Twilight 6:36 AM CST 5:45 PM CST
Astronomical Twilight 5:59 AM CST 6:23 PM CST
Moon 3:42 AM CST (11/29) 2:29 PM CST (11/29)
Length of Visible Light 9h 49m
Length of Day
8h 36m
Waning Crescent, 14% of the Moon is Illuminated
Nov 29
Waning Crescent
Dec 2
New
Dec 9
First Quarter
Dec 17
Full
Dec 25
Last Quarter

Hourly Weather History & Observations

Time (CST) Temp. Windchill Dew Point Humidity Pressure Visibility Wind Dir Wind Speed Gust Speed Precip Events Conditions
12:14 AM -5.8 °F -14.5 °F -11.2 °F 77% 30.45 in - SSE 3.5 mph - N/A   Clear
12:34 AM -2.2 °F - -7.6 °F 78% 30.45 in 10.0 mi Calm Calm - N/A   Clear
12:54 AM -0.4 °F - -5.8 °F 78% 30.44 in 10.0 mi Calm Calm - N/A   Clear
1:14 AM -5.8 °F - -11.2 °F 77% 30.43 in 10.0 mi Calm Calm - N/A   Clear
1:34 AM -5.8 °F - -11.2 °F 77% 30.43 in 10.0 mi Calm Calm - N/A   Clear
1:54 AM -5.8 °F - -11.2 °F 77% 30.43 in 10.0 mi Calm Calm - N/A   Clear
2:14 AM -4.0 °F - -9.4 °F 78% 30.42 in 10.0 mi Calm Calm - N/A   Clear
2:34 AM -0.4 °F - -5.8 °F 78% 30.43 in 10.0 mi Calm Calm - N/A   Clear
2:54 AM -2.2 °F - -7.6 °F 78% 30.42 in 10.0 mi Calm Calm - N/A   Clear
3:14 AM -4.0 °F - -9.4 °F 78% 30.42 in 10.0 mi Calm Calm - N/A   Clear
3:34 AM -2.2 °F - -7.6 °F 78% 30.42 in 10.0 mi Calm Calm - N/A   Clear
3:54 AM -0.4 °F - -5.8 °F 78% 30.41 in 10.0 mi Calm Calm - N/A   Scattered Clouds
4:14 AM 6.8 °F -0.1 °F 1.4 °F 79% 30.40 in 10.0 mi SE 3.5 mph - N/A   Scattered Clouds
4:34 AM 6.8 °F -0.1 °F 3.2 °F 85% 30.40 in 10.0 mi SE 3.5 mph - N/A   Mostly Cloudy
4:54 AM 6.8 °F - 1.4 °F 79% 30.39 in 10.0 mi Calm Calm - N/A   Overcast
5:14 AM 8.6 °F 2.0 °F 3.2 °F 79% 30.39 in 10.0 mi SE 3.5 mph - N/A   Mostly Cloudy
5:34 AM 10.4 °F 0.8 °F 6.8 °F 85% 30.38 in 10.0 mi SSE 5.8 mph - N/A   Overcast
5:54 AM 12.2 °F 4.3 °F 6.8 °F 79% 30.38 in 10.0 mi SSE 4.6 mph - N/A   Mostly Cloudy
6:14 AM 12.2 °F 1.7 °F 8.6 °F 85% 30.37 in 10.0 mi SSE 6.9 mph - N/A   Overcast
6:34 AM 12.2 °F 1.7 °F 8.6 °F 85% 30.36 in 10.0 mi SSE 6.9 mph - N/A   Overcast
6:54 AM 12.2 °F 1.7 °F 8.6 °F 85% 30.36 in 10.0 mi SSE 6.9 mph - N/A   Overcast
7:14 AM 12.2 °F 2.9 °F 8.6 °F 85% 30.35 in 10.0 mi SE 5.8 mph - N/A   Mostly Cloudy
7:34 AM 12.2 °F 1.7 °F 8.6 °F 85% 30.35 in 10.0 mi SE 6.9 mph - N/A   Scattered Clouds
7:54 AM 14.0 °F 2.9 °F 8.6 °F 79% 30.34 in 10.0 mi SSE 8.1 mph - N/A   Clear
8:14 AM 14.0 °F 2.0 °F 8.6 °F 79% 30.33 in 10.0 mi SSE 9.2 mph - N/A   Mostly Cloudy
8:34 AM 14.0 °F 2.0 °F 8.6 °F 79% 30.33 in 10.0 mi SE 9.2 mph - N/A   Mostly Cloudy
8:54 AM 14.0 °F 1.2 °F 8.6 °F 79% 30.31 in 10.0 mi SE 10.4 mph - N/A   Scattered Clouds
9:14 AM 15.8 °F 3.4 °F 10.4 °F 79% 30.30 in 10.0 mi SE 10.4 mph - N/A   Scattered Clouds
9:34 AM 15.8 °F 4.2 °F 10.4 °F 79% 30.30 in 10.0 mi SE 9.2 mph - N/A   Mostly Cloudy
9:54 AM 15.8 °F 3.4 °F 10.4 °F 79% 30.30 in 10.0 mi SE 10.4 mph - N/A   Scattered Clouds
10:14 AM 15.8 °F 4.2 °F 10.4 °F 79% 30.29 in 10.0 mi SE 9.2 mph - N/A   Scattered Clouds
10:34 AM 17.6 °F 6.4 °F 10.4 °F 73% 30.29 in 10.0 mi SE 9.2 mph - N/A   Scattered Clouds
10:54 AM 17.6 °F 5.0 °F 12.2 °F 79% 30.27 in 10.0 mi SE 11.5 mph - N/A   Clear
11:14 AM 17.6 °F 5.0 °F 12.2 °F 79% 30.26 in 10.0 mi SE 11.5 mph - N/A   Scattered Clouds
11:34 AM 17.6 °F 7.3 °F 12.2 °F 79% 30.24 in 10.0 mi SE 8.1 mph - N/A   Clear
11:55 AM 19.4 °F 8.6 °F 12.2 °F 74% 30.23 in 10.0 mi SE 9.2 mph - N/A   Scattered Clouds
12:14 PM 19.4 °F 6.0 °F 12.2 °F 74% 30.20 in 10.0 mi SE 13.8 mph - N/A   Scattered Clouds
12:34 PM 19.4 °F 5.5 °F 14.0 °F 80% 30.18 in 10.0 mi SSE 15.0 mph 19.6 mph N/A   Clear
12:54 PM 21.2 °F 9.5 °F 14.0 °F 74% 30.17 in 10.0 mi SE 11.5 mph - N/A   Clear
1:14 PM 21.2 °F 9.5 °F 14.0 °F 74% 30.16 in 10.0 mi SE 11.5 mph - N/A   Clear
1:35 PM 21.2 °F 10.1 °F 14.0 °F 74% 30.15 in 10.0 mi SE 10.4 mph - N/A   Clear
1:54 PM 21.2 °F 8.9 °F 14.0 °F 74% 30.12 in 10.0 mi SE 12.7 mph - N/A   Clear
2:14 PM 21.2 °F 9.5 °F 15.8 °F 80% 30.11 in 10.0 mi SE 11.5 mph - N/A   Clear
2:35 PM 21.2 °F 11.7 °F 15.8 °F 80% 30.11 in 10.0 mi SE 8.1 mph - N/A   Clear
2:54 PM 21.2 °F 10.1 °F 15.8 °F 80% 30.10 in 10.0 mi ESE 10.4 mph - N/A   Clear
3:14 PM 21.2 °F 10.9 °F 15.8 °F 80% 30.09 in 10.0 mi SE 9.2 mph - N/A   Clear
3:34 PM 21.2 °F 11.7 °F 15.8 °F 80% 30.09 in 10.0 mi ESE 8.1 mph - N/A   Clear
3:54 PM 21.2 °F 11.7 °F 15.8 °F 80% 30.09 in 10.0 mi SE 8.1 mph - N/A   Scattered Clouds
4:14 PM 23.0 °F 13.9 °F 15.8 °F 74% 30.09 in 10.0 mi ESE 8.1 mph - N/A   Mostly Cloudy
4:34 PM 23.0 °F 13.1 °F 15.8 °F 74% 30.08 in 10.0 mi SE 9.2 mph - N/A   Overcast
4:54 PM 23.0 °F 11.7 °F 15.8 °F 74% 30.07 in 10.0 mi SE 11.5 mph - N/A   Overcast
5:14 PM 23.0 °F 13.9 °F 15.8 °F 74% 30.07 in 10.0 mi SE 8.1 mph - N/A   Overcast
5:34 PM 23.0 °F 12.4 °F 15.8 °F 74% 30.07 in 10.0 mi SE 10.4 mph - N/A   Overcast
5:54 PM 23.0 °F 13.9 °F 17.6 °F 80% 30.06 in 10.0 mi SE 8.1 mph - N/A   Overcast
6:14 PM 23.0 °F 13.1 °F 17.6 °F 80% 30.05 in 10.0 mi SE 9.2 mph - N/A   Overcast
6:34 PM 24.8 °F 15.3 °F 17.6 °F 74% 30.04 in 10.0 mi SE 9.2 mph - N/A   Overcast
6:54 PM 24.8 °F 17.9 °F 17.6 °F 74% 30.05 in 10.0 mi SE 5.8 mph - N/A   Overcast
7:14 PM 24.8 °F 17.9 °F 17.6 °F 74% 30.04 in 10.0 mi SE 5.8 mph - N/A   Overcast
7:34 PM 24.8 °F 17.9 °F 17.6 °F 74% 30.03 in 10.0 mi SE 5.8 mph - N/A   Overcast
7:54 PM 24.8 °F 17.9 °F 17.6 °F 74% 30.03 in 10.0 mi SE 5.8 mph - N/A   Overcast
8:14 PM 24.8 °F 17.9 °F 17.6 °F 74% 30.02 in 10.0 mi SE 5.8 mph - N/A   Overcast
8:34 PM 24.8 °F 17.9 °F 17.6 °F 74% 30.01 in 10.0 mi SE 5.8 mph - N/A   Overcast
8:55 PM 24.8 °F 16.1 °F 19.4 °F 80% 29.99 in 10.0 mi SE 8.1 mph - N/A   Overcast
9:14 PM 26.6 °F 19.1 °F 19.4 °F 74% 30.00 in 10.0 mi SSE 6.9 mph - N/A   Overcast
9:34 PM 26.6 °F 18.2 °F 19.4 °F 74% 29.99 in 10.0 mi SSE 8.1 mph - N/A   Overcast
9:55 PM 26.6 °F 18.2 °F 19.4 °F 74% 29.99 in 10.0 mi SSE 8.1 mph - N/A   Overcast
10:14 PM 26.6 °F 18.2 °F 19.4 °F 74% 29.98 in 10.0 mi SSE 8.1 mph - N/A   Overcast
10:34 PM 32.0 °F 24.8 °F 17.6 °F 55% - 10.0 mi SSE 8.1 mph - N/A   Mostly Cloudy
10:54 PM 23.0 °F 14.7 °F 15.8 °F 74% 29.97 in 10.0 mi South 6.9 mph - N/A   Scattered Clouds
11:14 PM 21.2 °F 12.6 °F 15.8 °F 80% 29.97 in 10.0 mi South 6.9 mph - N/A   Clear
11:34 PM 19.4 °F 9.5 °F 12.2 °F 74% 29.97 in 10.0 mi South 8.1 mph - N/A   Clear
11:47 PM 19.4 °F 10.4 °F 14.0 °F 80% 29.97 in 10.0 mi South 6.9 mph - N/A   Clear